Find Tianmu-1 qixiang xingzou 02

NORAD ID: 55137 Int'l Des: 2023-003 Owner: TIANMU Country: CN operational
LEOCIRCULARRETROGRADESSO

リアルタイム位置

3D地球を読み込み中...

Tianmu-1 qixiang xingzou 02について

説明を読み込み中...

次回通過

Passes for default location (London). Set your location on the main map for personalized predictions.

高度履歴

Loading altitude history...

軌道要素

1 55137U 23003E 26105.26199664 .00012104 00000-0 19847-3 0 9996
2 55137 97.1468 180.8750 0003228 10.5971 349.5350 15.52591010182497
Epoch: Apr 15, 2026 • Age: 5 hours

現在のステータス

高度 422.4 km
速度 7.66 km/s
衛星直下点 81.89°N, 48.59°E
打ち上げ日 Jan 9, 2023
運用期間 3.2 years
タイプ other

技術仕様

分類 Payload
質量 50.00 kg
乾燥質量 50.00 kg
総質量 50.00 kg
長さ 1.50 m
直径 1.00 m
スパン 1.50 m
形状 Box
製造者 TIANMU
バスタイプ Tianmu
フェーズステータス In Orbit
所有者/国 TIANMU/CN

Most Searched